Year,Month,Day,Hour,Minute,Value (Times are PST for temperature in C)
2017,12,15,00,00,5.80
2017,12,15,00,01,5.70
2017,12,15,00,02,5.70
2017,12,15,00,03,5.70
2017,12,15,00,04,5.70
2017,12,15,00,05,5.70
2017,12,15,00,06,5.80
2017,12,15,00,07,5.80
2017,12,15,00,08,5.80
2017,12,15,00,09,5.80
2017,12,15,00,10,5.80
2017,12,15,00,11,5.80
2017,12,15,00,12,5.80
2017,12,15,00,13,5.80
2017,12,15,00,14,5.80
2017,12,15,00,15,5.80
2017,12,15,00,16,5.80
2017,12,15,00,17,5.80
2017,12,15,00,18,5.80
2017,12,15,00,19,5.80
2017,12,15,00,20,5.80
2017,12,15,00,21,5.80
2017,12,15,00,22,5.70
2017,12,15,00,23,5.70
2017,12,15,00,24,5.70
2017,12,15,00,25,5.70
2017,12,15,00,26,5.70
2017,12,15,00,27,5.70
2017,12,15,00,28,5.70
2017,12,15,00,29,5.70
2017,12,15,00,30,5.70
2017,12,15,00,31,5.70
2017,12,15,00,32,5.70
2017,12,15,00,33,5.70
2017,12,15,00,34,5.70
2017,12,15,00,35,5.70
2017,12,15,00,36,5.70
2017,12,15,00,37,5.70
2017,12,15,00,38,5.70
2017,12,15,00,39,5.70
2017,12,15,00,40,5.70
2017,12,15,00,41,5.70
2017,12,15,00,42,5.70
2017,12,15,00,43,5.70
2017,12,15,00,44,5.70
2017,12,15,00,45,5.70
2017,12,15,00,46,5.70
2017,12,15,00,47,5.70
2017,12,15,00,48,5.70
2017,12,15,00,49,5.70
2017,12,15,00,50,5.70
2017,12,15,00,51,5.70
2017,12,15,00,52,5.70
2017,12,15,00,53,5.70
2017,12,15,00,54,5.70
2017,12,15,00,55,5.70
2017,12,15,00,56,5.70
2017,12,15,00,57,5.70
2017,12,15,00,58,5.70
2017,12,15,00,59,5.70
2017,12,15,01,00,5.70
2017,12,15,01,01,5.70
2017,12,15,01,02,5.80
2017,12,15,01,03,5.80
2017,12,15,01,04,5.80
2017,12,15,01,05,5.80
2017,12,15,01,06,5.80
2017,12,15,01,07,5.80
2017,12,15,01,08,5.80
2017,12,15,01,09,5.80
2017,12,15,01,10,5.80
2017,12,15,01,11,5.80
2017,12,15,01,12,5.80
2017,12,15,01,13,5.80
2017,12,15,01,14,5.80
2017,12,15,01,15,5.80
2017,12,15,01,16,5.80
2017,12,15,01,17,5.80
2017,12,15,01,18,5.80
2017,12,15,01,19,5.80
2017,12,15,01,20,5.80
2017,12,15,01,21,5.80
2017,12,15,01,22,5.80
2017,12,15,01,23,5.80
2017,12,15,01,24,5.90
2017,12,15,01,25,5.90
2017,12,15,01,26,5.90
2017,12,15,01,27,5.90
2017,12,15,01,28,5.90
2017,12,15,01,29,5.90
2017,12,15,01,30,5.90
2017,12,15,01,31,5.90
2017,12,15,01,32,5.90
2017,12,15,01,33,5.90
2017,12,15,01,34,5.90
2017,12,15,01,35,5.90
2017,12,15,01,36,5.90
2017,12,15,01,37,5.90
2017,12,15,01,38,5.90
2017,12,15,01,39,5.90
2017,12,15,01,40,5.90
2017,12,15,01,41,5.90
2017,12,15,01,42,5.90
2017,12,15,01,43,5.90
2017,12,15,01,44,5.90
2017,12,15,01,45,5.90
2017,12,15,01,46,5.90
2017,12,15,01,47,5.90
2017,12,15,01,48,5.90
2017,12,15,01,49,5.90
2017,12,15,01,50,5.90
2017,12,15,01,51,5.90
2017,12,15,01,52,5.90
2017,12,15,01,53,5.90
2017,12,15,01,54,5.90
2017,12,15,01,55,5.90
2017,12,15,01,56,5.90
2017,12,15,01,57,5.90
2017,12,15,01,58,5.90
2017,12,15,01,59,5.90
2017,12,15,02,00,5.90
2017,12,15,02,01,5.90
2017,12,15,02,02,5.90
2017,12,15,02,03,5.90
2017,12,15,02,04,5.90
2017,12,15,02,05,5.90
2017,12,15,02,06,5.80
2017,12,15,02,07,5.80
2017,12,15,02,08,5.80
2017,12,15,02,09,5.80
2017,12,15,02,10,5.80
2017,12,15,02,11,5.80
2017,12,15,02,12,5.80
2017,12,15,02,13,5.80
2017,12,15,02,14,5.80
2017,12,15,02,15,5.80
2017,12,15,02,16,5.80
2017,12,15,02,17,5.80
2017,12,15,02,18,5.80
2017,12,15,02,19,5.80
2017,12,15,02,20,5.80
2017,12,15,02,21,5.80
2017,12,15,02,22,5.80
2017,12,15,02,23,5.80
2017,12,15,02,24,5.80
2017,12,15,02,25,5.80
2017,12,15,02,26,5.80
2017,12,15,02,27,5.80
2017,12,15,02,28,5.80
2017,12,15,02,29,5.80
2017,12,15,02,30,5.80
2017,12,15,02,31,5.80
2017,12,15,02,32,5.80
2017,12,15,02,33,5.80
2017,12,15,02,34,5.80
2017,12,15,02,35,5.80
2017,12,15,02,36,5.80
2017,12,15,02,37,5.80
2017,12,15,02,38,5.80
2017,12,15,02,39,5.80
2017,12,15,02,40,5.80
2017,12,15,02,41,5.80
2017,12,15,02,42,5.80
2017,12,15,02,43,5.70
2017,12,15,02,44,5.70
2017,12,15,02,45,5.70
2017,12,15,02,46,5.70
2017,12,15,02,47,5.70
2017,12,15,02,48,5.70
2017,12,15,02,49,5.70
2017,12,15,02,50,5.70
2017,12,15,02,51,5.70
2017,12,15,02,52,5.70
2017,12,15,02,53,5.70
2017,12,15,02,54,5.70
2017,12,15,02,55,5.70
2017,12,15,02,56,5.70
2017,12,15,02,57,5.70
2017,12,15,02,58,5.70
2017,12,15,02,59,5.70
2017,12,15,03,00,5.70
2017,12,15,03,01,5.80
2017,12,15,03,02,5.80
2017,12,15,03,03,5.80
2017,12,15,03,04,5.80
2017,12,15,03,05,5.80
2017,12,15,03,06,5.80
2017,12,15,03,07,5.80
2017,12,15,03,08,5.80
2017,12,15,03,09,5.90
2017,12,15,03,10,5.90
2017,12,15,03,11,5.90
2017,12,15,03,12,5.90
2017,12,15,03,13,5.90
2017,12,15,03,14,5.90
2017,12,15,03,15,5.90
2017,12,15,03,16,5.90
2017,12,15,03,17,5.90
2017,12,15,03,18,5.90
2017,12,15,03,19,5.90
2017,12,15,03,20,5.90
2017,12,15,03,21,6.00
2017,12,15,03,22,5.90
2017,12,15,03,23,5.90
2017,12,15,03,24,5.90
2017,12,15,03,25,5.90
2017,12,15,03,26,5.90
2017,12,15,03,27,5.90
2017,12,15,03,28,5.90
2017,12,15,03,29,5.90
2017,12,15,03,30,5.90
2017,12,15,03,31,5.90
2017,12,15,03,32,6.00
2017,12,15,03,33,6.00
2017,12,15,03,34,6.00
2017,12,15,03,35,6.00
2017,12,15,03,36,6.00
2017,12,15,03,37,6.00
2017,12,15,03,38,6.10
2017,12,15,03,39,6.10
2017,12,15,03,40,6.10
2017,12,15,03,41,6.10
2017,12,15,03,42,6.10
2017,12,15,03,43,6.10
2017,12,15,03,44,6.10
2017,12,15,03,45,6.10
2017,12,15,03,46,6.10
2017,12,15,03,47,6.10
2017,12,15,03,48,6.10
2017,12,15,03,49,6.10
2017,12,15,03,50,6.10
2017,12,15,03,51,6.10
2017,12,15,03,52,6.10
2017,12,15,03,53,6.20
2017,12,15,03,54,6.20
2017,12,15,03,55,6.20
2017,12,15,03,56,6.20
2017,12,15,03,57,6.20
2017,12,15,03,58,6.20
2017,12,15,03,59,6.20
2017,12,15,04,00,6.20
2017,12,15,04,01,6.10
2017,12,15,04,02,6.10
2017,12,15,04,03,6.10
2017,12,15,04,04,6.10
2017,12,15,04,05,6.10
2017,12,15,04,06,6.10
2017,12,15,04,07,6.10
2017,12,15,04,08,6.10
2017,12,15,04,09,6.10
2017,12,15,04,10,6.10
2017,12,15,04,11,6.10
2017,12,15,04,12,6.10
2017,12,15,04,13,6.10
2017,12,15,04,14,6.10
2017,12,15,04,15,6.10
2017,12,15,04,16,6.10
2017,12,15,04,17,6.10
2017,12,15,04,18,6.10
2017,12,15,04,19,6.20
2017,12,15,04,20,6.20
2017,12,15,04,21,6.20
2017,12,15,04,22,6.20
2017,12,15,04,23,6.20
2017,12,15,04,24,6.20
2017,12,15,04,25,6.20
2017,12,15,04,26,6.20
2017,12,15,04,27,6.20
2017,12,15,04,28,6.20
2017,12,15,04,29,6.20
2017,12,15,04,30,6.20
2017,12,15,04,31,6.20
2017,12,15,04,32,6.20
2017,12,15,04,33,6.20
2017,12,15,04,34,6.20
2017,12,15,04,35,6.20
2017,12,15,04,36,6.20
2017,12,15,04,37,6.20
2017,12,15,04,38,6.20
2017,12,15,04,39,6.20
2017,12,15,04,40,6.20
2017,12,15,04,41,6.20
2017,12,15,04,42,6.10
2017,12,15,04,43,6.10
2017,12,15,04,44,6.10
2017,12,15,04,45,6.10
2017,12,15,04,46,6.20
2017,12,15,04,47,6.10
2017,12,15,04,48,6.10
2017,12,15,04,49,6.10
2017,12,15,04,50,6.10
2017,12,15,04,51,6.10
2017,12,15,04,52,6.10
2017,12,15,04,53,6.20
2017,12,15,04,54,6.20
2017,12,15,04,55,6.20
2017,12,15,04,56,6.20
2017,12,15,04,57,6.20
2017,12,15,04,58,6.20
2017,12,15,04,59,6.20
2017,12,15,05,00,6.20
2017,12,15,05,01,6.20
2017,12,15,05,02,6.20
2017,12,15,05,03,6.20
2017,12,15,05,04,6.20
2017,12,15,05,05,6.20
2017,12,15,05,06,6.20
2017,12,15,05,07,6.20
2017,12,15,05,08,6.20
2017,12,15,05,09,6.30
2017,12,15,05,10,6.30
2017,12,15,05,11,6.30
2017,12,15,05,12,6.30
2017,12,15,05,13,6.30
2017,12,15,05,14,6.30
2017,12,15,05,15,6.30
2017,12,15,05,16,6.30
2017,12,15,05,17,6.30
2017,12,15,05,18,6.30
2017,12,15,05,19,6.30
2017,12,15,05,20,6.30
2017,12,15,05,21,6.30
2017,12,15,05,22,6.30
2017,12,15,05,23,6.30
2017,12,15,05,24,6.30
2017,12,15,05,25,6.30
2017,12,15,05,26,6.30
2017,12,15,05,27,6.30
2017,12,15,05,28,6.30
2017,12,15,05,29,6.30
2017,12,15,05,30,6.30
2017,12,15,05,31,6.30
2017,12,15,05,32,6.30
2017,12,15,05,33,6.30
2017,12,15,05,34,6.20
2017,12,15,05,35,6.20
2017,12,15,05,36,6.20
2017,12,15,05,37,6.20
2017,12,15,05,38,6.20
2017,12,15,05,39,6.20
2017,12,15,05,40,6.20
2017,12,15,05,41,6.20
2017,12,15,05,42,6.20
2017,12,15,05,43,6.20
2017,12,15,05,44,6.20
2017,12,15,05,45,6.20
2017,12,15,05,46,6.20
2017,12,15,05,47,6.20
2017,12,15,05,48,6.20
2017,12,15,05,49,6.20
2017,12,15,05,50,6.20
2017,12,15,05,51,6.20
2017,12,15,05,52,6.20
2017,12,15,05,53,6.20
2017,12,15,05,54,6.20
2017,12,15,05,55,6.20
2017,12,15,05,56,6.20
2017,12,15,05,57,6.20
2017,12,15,05,58,6.20
2017,12,15,05,59,6.20
2017,12,15,06,00,6.30
2017,12,15,06,01,6.30
2017,12,15,06,02,6.30
2017,12,15,06,03,6.30
2017,12,15,06,04,6.30
2017,12,15,06,05,6.40
2017,12,15,06,06,6.40
2017,12,15,06,07,6.40
2017,12,15,06,08,6.40
2017,12,15,06,09,6.40
2017,12,15,06,10,6.40
2017,12,15,06,11,6.30
2017,12,15,06,12,6.30
2017,12,15,06,13,6.30
2017,12,15,06,14,6.30
2017,12,15,06,15,6.30
2017,12,15,06,16,6.30
2017,12,15,06,17,6.30
2017,12,15,06,18,6.30
2017,12,15,06,19,6.30
2017,12,15,06,20,6.30
2017,12,15,06,21,6.30
2017,12,15,06,22,6.30
2017,12,15,06,23,6.30
2017,12,15,06,24,6.30
2017,12,15,06,25,6.30
2017,12,15,06,26,6.20
2017,12,15,06,27,6.20
2017,12,15,06,28,6.20
2017,12,15,06,29,6.30
2017,12,15,06,30,6.30
2017,12,15,06,31,6.30
2017,12,15,06,32,6.30
2017,12,15,06,33,6.20
2017,12,15,06,34,6.20
2017,12,15,06,35,6.20
2017,12,15,06,36,6.20
2017,12,15,06,37,6.20
2017,12,15,06,38,6.20
2017,12,15,06,39,6.10
2017,12,15,06,40,6.00
2017,12,15,06,41,6.00
2017,12,15,06,42,5.90
2017,12,15,06,43,5.90
2017,12,15,06,44,5.80
2017,12,15,06,45,5.80
2017,12,15,06,46,5.70
2017,12,15,06,47,5.70
2017,12,15,06,48,5.70
2017,12,15,06,49,5.70
2017,12,15,06,50,5.70
2017,12,15,06,51,5.70
2017,12,15,06,52,5.70
2017,12,15,06,53,5.70
2017,12,15,06,54,5.70
2017,12,15,06,55,5.70
2017,12,15,06,56,5.70
2017,12,15,06,57,5.70
2017,12,15,06,58,5.70
2017,12,15,06,59,5.70
2017,12,15,07,00,5.70
2017,12,15,07,01,5.80
2017,12,15,07,02,5.80
2017,12,15,07,03,5.80
2017,12,15,07,04,5.80
2017,12,15,07,05,5.80
2017,12,15,07,06,5.80
2017,12,15,07,07,5.80
2017,12,15,07,08,5.80
2017,12,15,07,09,5.80
2017,12,15,07,10,5.80
2017,12,15,07,11,5.80
2017,12,15,07,12,5.80
2017,12,15,07,13,5.80
2017,12,15,07,14,5.80
2017,12,15,09,46,5.80
2017,12,15,09,47,5.80
2017,12,15,09,48,5.80
2017,12,15,09,49,5.80
2017,12,15,09,50,5.80
2017,12,15,09,51,5.80
2017,12,15,09,52,5.90
2017,12,15,09,53,5.90
2017,12,15,09,54,5.90
2017,12,15,09,55,5.90
2017,12,15,09,56,5.90
2017,12,15,09,57,5.90
2017,12,15,09,58,5.90
2017,12,15,09,59,5.90
2017,12,15,10,00,5.90
2017,12,15,10,01,5.90
2017,12,15,10,02,5.90
2017,12,15,10,03,5.90
2017,12,15,10,04,5.90
2017,12,15,10,05,5.90
2017,12,15,10,06,6.00
2017,12,15,10,07,6.00
2017,12,15,10,08,6.00
2017,12,15,10,09,6.00
2017,12,15,10,10,6.00
2017,12,15,10,11,6.00
2017,12,15,10,12,6.10
2017,12,15,10,13,6.10
2017,12,15,10,14,6.10
2017,12,15,10,15,6.00
2017,12,15,10,16,6.00
2017,12,15,10,17,6.00
2017,12,15,10,18,6.00
2017,12,15,10,19,6.00
2017,12,15,10,20,6.00
2017,12,15,10,21,6.00
2017,12,15,10,22,6.10
2017,12,15,10,23,6.10
2017,12,15,10,24,6.10
2017,12,15,10,25,6.10
2017,12,15,10,26,6.10
2017,12,15,10,27,6.10
2017,12,15,10,28,6.10
2017,12,15,10,29,6.10
2017,12,15,10,30,6.10
2017,12,15,10,31,6.10
2017,12,15,10,32,6.10
2017,12,15,10,33,6.00
2017,12,15,10,34,6.00
2017,12,15,10,35,6.00
2017,12,15,10,36,6.00
2017,12,15,10,37,6.00
2017,12,15,10,38,6.00
2017,12,15,10,39,6.00
2017,12,15,10,40,6.00
2017,12,15,10,41,6.00
2017,12,15,10,42,6.00
2017,12,15,10,43,6.00
2017,12,15,10,44,6.00
2017,12,15,10,45,6.00
2017,12,15,10,46,6.10
2017,12,15,10,47,6.10
2017,12,15,10,48,6.10
2017,12,15,10,49,6.10
2017,12,15,10,50,6.10
2017,12,15,10,51,6.10
2017,12,15,10,52,6.10
2017,12,15,10,53,6.10
2017,12,15,10,54,6.10
2017,12,15,10,55,6.10
2017,12,15,10,56,6.10
2017,12,15,10,57,6.10
2017,12,15,10,58,6.10
2017,12,15,10,59,6.10
2017,12,15,11,00,6.10
2017,12,15,11,01,6.10
2017,12,15,11,02,6.20
2017,12,15,11,03,6.20
2017,12,15,11,04,6.20
2017,12,15,11,05,6.20
2017,12,15,11,06,6.20
2017,12,15,11,07,6.20
2017,12,15,11,08,6.20
2017,12,15,11,09,6.20
2017,12,15,11,10,6.20
2017,12,15,11,11,6.20
2017,12,15,11,12,6.20
2017,12,15,11,13,6.20
2017,12,15,11,14,6.20
2017,12,15,11,15,6.20
2017,12,15,11,16,6.20
2017,12,15,11,17,6.20
2017,12,15,11,18,6.20
2017,12,15,11,19,6.20
2017,12,15,11,20,6.20
2017,12,15,11,21,6.20
2017,12,15,11,22,6.20
2017,12,15,11,23,6.20
2017,12,15,11,24,6.20
2017,12,15,11,25,6.20
2017,12,15,11,26,6.20
2017,12,15,11,27,6.20
2017,12,15,11,28,6.20
2017,12,15,11,29,6.20
2017,12,15,11,30,6.20
2017,12,15,11,31,6.20
2017,12,15,11,32,6.20
2017,12,15,11,33,6.20
2017,12,15,11,34,6.20
2017,12,15,11,35,6.20
2017,12,15,11,36,6.20
2017,12,15,11,37,6.20
2017,12,15,11,38,6.20
2017,12,15,11,39,6.20
2017,12,15,11,40,6.20
2017,12,15,11,41,6.20
2017,12,15,11,42,6.20
2017,12,15,11,43,6.20
2017,12,15,11,44,6.20
2017,12,15,11,45,6.20
2017,12,15,11,46,6.30
2017,12,15,11,47,6.30
2017,12,15,11,48,6.30
2017,12,15,11,49,6.30
2017,12,15,11,50,6.30
2017,12,15,11,51,6.30
2017,12,15,11,52,6.30
2017,12,15,11,53,6.30
2017,12,15,11,54,6.30
2017,12,15,11,55,6.30
2017,12,15,11,56,6.30
2017,12,15,11,57,6.30
2017,12,15,11,58,6.30
2017,12,15,11,59,6.30
2017,12,15,12,00,6.20
2017,12,15,12,01,6.30
2017,12,15,12,02,6.30
2017,12,15,12,03,6.30
2017,12,15,12,04,6.30
2017,12,15,12,05,6.30
2017,12,15,12,06,6.30
2017,12,15,12,07,6.20
2017,12,15,12,08,6.20
2017,12,15,12,09,6.20
2017,12,15,12,10,6.20
2017,12,15,12,11,6.20
2017,12,15,12,12,6.20
2017,12,15,12,13,6.20
2017,12,15,12,14,6.20
2017,12,15,12,15,6.20
2017,12,15,12,16,6.20
2017,12,15,12,17,6.20
2017,12,15,12,18,6.20
2017,12,15,12,19,6.20
2017,12,15,12,20,6.20
2017,12,15,12,21,6.20
2017,12,15,12,22,6.20
2017,12,15,12,23,6.20
2017,12,15,12,24,6.20
2017,12,15,12,25,6.20
2017,12,15,12,26,6.20
2017,12,15,12,27,6.20
2017,12,15,12,28,6.20
2017,12,15,12,29,6.20
2017,12,15,12,30,6.20
2017,12,15,12,31,6.20
2017,12,15,12,32,6.20
2017,12,15,12,33,6.20
2017,12,15,12,34,6.20
2017,12,15,12,35,6.20
2017,12,15,12,36,6.20
2017,12,15,12,37,6.20
2017,12,15,12,38,6.20
2017,12,15,12,39,6.20
2017,12,15,12,40,6.20
2017,12,15,12,41,6.20
2017,12,15,12,42,6.20
2017,12,15,12,43,6.20
2017,12,15,12,44,6.20
2017,12,15,12,45,6.20
2017,12,15,12,46,6.20
2017,12,15,12,47,6.20
2017,12,15,12,48,6.20
2017,12,15,12,49,6.20
2017,12,15,12,50,6.20
2017,12,15,12,51,6.20
2017,12,15,12,52,6.20
2017,12,15,12,53,6.20
2017,12,15,12,54,6.20
2017,12,15,12,55,6.20
2017,12,15,12,56,6.20
2017,12,15,12,57,6.30
2017,12,15,12,58,6.30
2017,12,15,12,59,6.30
2017,12,15,13,00,6.30
2017,12,15,13,01,6.30
2017,12,15,13,02,6.30
2017,12,15,13,03,6.30
2017,12,15,13,04,6.40
2017,12,15,13,05,6.40
2017,12,15,13,06,6.40
2017,12,15,13,07,6.40
2017,12,15,13,08,6.40
2017,12,15,13,09,6.40
2017,12,15,13,10,6.40
2017,12,15,13,11,6.40
2017,12,15,13,12,6.40
2017,12,15,13,13,6.40
2017,12,15,13,14,6.40
2017,12,15,13,15,6.40
2017,12,15,13,16,6.40
2017,12,15,13,17,6.40
2017,12,15,13,18,6.40
2017,12,15,13,19,6.40
2017,12,15,13,20,6.40
2017,12,15,13,21,6.40
2017,12,15,13,22,6.40
2017,12,15,13,23,6.40
2017,12,15,13,24,6.40
2017,12,15,13,25,6.60
2017,12,15,13,26,6.60
2017,12,15,13,27,6.60
2017,12,15,13,28,6.60
2017,12,15,13,29,6.60
2017,12,15,13,30,6.60
2017,12,15,13,31,6.60
2017,12,15,13,32,6.60
2017,12,15,13,33,6.60
2017,12,15,13,34,6.60
2017,12,15,13,35,6.40
2017,12,15,13,36,6.40
2017,12,15,13,37,6.40
2017,12,15,13,38,6.60
2017,12,15,13,39,6.60
2017,12,15,13,40,6.60
2017,12,15,13,41,6.60
2017,12,15,13,42,6.60
2017,12,15,13,43,6.60
2017,12,15,13,44,6.60
2017,12,15,13,45,6.60
2017,12,15,13,46,6.60
2017,12,15,13,47,6.60
2017,12,15,13,48,6.60
2017,12,15,13,49,6.60
2017,12,15,13,50,6.60
2017,12,15,13,51,6.60
2017,12,15,13,52,6.60
2017,12,15,13,53,6.60
2017,12,15,13,54,6.60
2017,12,15,13,55,6.60
2017,12,15,13,56,6.60
2017,12,15,13,57,6.60
2017,12,15,13,58,6.60
2017,12,15,13,59,6.60
2017,12,15,14,00,6.60
2017,12,15,14,01,6.60
2017,12,15,14,02,6.60
2017,12,15,14,03,6.50
2017,12,15,14,04,6.40
2017,12,15,14,05,6.40
2017,12,15,14,06,6.50
2017,12,15,14,07,6.60
2017,12,15,14,08,6.60
2017,12,15,14,09,6.60
2017,12,15,14,10,6.60
2017,12,15,14,11,6.60
2017,12,15,14,12,6.60
2017,12,15,14,13,6.60
2017,12,15,14,14,6.60
2017,12,15,14,15,6.60
2017,12,15,14,16,6.60
2017,12,15,14,17,6.70
2017,12,15,14,18,6.70
2017,12,15,14,19,6.70
2017,12,15,14,20,6.70
2017,12,15,14,21,6.70
2017,12,15,14,22,6.70
2017,12,15,14,23,6.80
2017,12,15,14,24,6.80
2017,12,15,14,25,6.80
2017,12,15,14,26,6.80
2017,12,15,14,27,6.80
2017,12,15,14,28,6.80
2017,12,15,14,29,6.80
2017,12,15,14,30,6.80
2017,12,15,14,31,6.80
2017,12,15,14,32,6.80
2017,12,15,14,33,6.80
2017,12,15,14,34,6.90
2017,12,15,14,35,6.90
2017,12,15,14,36,6.90
2017,12,15,14,37,6.90
2017,12,15,14,38,7.00
2017,12,15,14,39,7.00
2017,12,15,14,40,7.00
2017,12,15,14,41,7.00
2017,12,15,14,42,7.00
2017,12,15,14,43,7.10
2017,12,15,14,44,7.10
2017,12,15,14,45,7.10
2017,12,15,14,46,7.10
2017,12,15,14,47,7.10
2017,12,15,14,48,7.10
2017,12,15,14,49,7.10
2017,12,15,14,50,7.10
2017,12,15,14,51,7.20
2017,12,15,14,52,7.20
2017,12,15,14,53,7.10
2017,12,15,14,54,7.00
2017,12,15,14,55,7.00
2017,12,15,14,56,6.90
2017,12,15,14,57,6.90
2017,12,15,14,58,6.90
2017,12,15,14,59,6.90
2017,12,15,15,00,6.90
2017,12,15,15,01,6.90
2017,12,15,15,02,6.90
2017,12,15,15,03,6.90
2017,12,15,15,04,6.90
2017,12,15,15,05,6.80
2017,12,15,15,06,6.80
2017,12,15,15,07,6.80
2017,12,15,15,08,6.80
2017,12,15,15,09,6.80
2017,12,15,15,10,6.80
2017,12,15,15,11,6.80
2017,12,15,15,12,6.80
2017,12,15,15,13,6.80
2017,12,15,15,14,6.80
2017,12,15,15,15,6.80
2017,12,15,15,16,6.80
2017,12,15,15,17,6.80
2017,12,15,15,18,6.80
2017,12,15,15,19,6.80
2017,12,15,15,20,6.80
2017,12,15,15,21,6.80
2017,12,15,15,22,6.80
2017,12,15,15,23,6.80
2017,12,15,15,24,6.80
2017,12,15,15,25,6.80
2017,12,15,15,26,6.80
2017,12,15,15,27,6.80
2017,12,15,15,28,6.80
2017,12,15,15,29,6.80
2017,12,15,15,30,6.80
2017,12,15,15,31,6.80
2017,12,15,15,32,6.80
2017,12,15,15,33,6.90
2017,12,15,15,34,6.90
2017,12,15,15,35,6.90
2017,12,15,15,36,6.90
2017,12,15,15,37,6.90
2017,12,15,15,38,6.90
2017,12,15,15,39,6.90
2017,12,15,15,40,6.90
2017,12,15,15,41,6.90
2017,12,15,15,42,6.90
2017,12,15,15,43,6.90
2017,12,15,15,44,6.90
2017,12,15,15,45,6.90
2017,12,15,15,46,6.90
2017,12,15,15,47,6.90
2017,12,15,15,48,6.90
2017,12,15,15,49,6.90
2017,12,15,15,50,6.90
2017,12,15,15,51,6.90
2017,12,15,15,52,6.90
2017,12,15,15,53,6.90
2017,12,15,15,54,6.90
2017,12,15,15,55,6.80
2017,12,15,15,56,6.80
2017,12,15,15,57,6.80
2017,12,15,15,58,6.80
2017,12,15,15,59,6.80
2017,12,15,16,00,6.80
2017,12,15,16,01,6.80
2017,12,15,16,02,6.80
2017,12,15,16,03,6.80
2017,12,15,16,04,6.80
2017,12,15,16,05,6.80
2017,12,15,16,06,6.80
2017,12,15,16,07,6.80
2017,12,15,16,08,6.80
2017,12,15,16,09,6.80
2017,12,15,16,10,6.80
2017,12,15,16,11,6.80
2017,12,15,16,12,6.80
2017,12,15,16,13,6.80
2017,12,15,16,14,6.80
2017,12,15,16,15,6.80
2017,12,15,16,16,6.80
2017,12,15,16,17,6.70
2017,12,15,16,18,6.70
2017,12,15,16,19,6.70
2017,12,15,16,20,6.70
2017,12,15,16,21,6.70
2017,12,15,16,22,6.60
2017,12,15,16,23,6.60
2017,12,15,16,24,6.60
2017,12,15,16,25,6.60
2017,12,15,16,26,6.60
2017,12,15,16,27,6.60
2017,12,15,16,28,6.60
2017,12,15,16,29,6.60
2017,12,15,16,30,6.60
2017,12,15,16,31,6.60
2017,12,15,16,32,6.60
2017,12,15,16,33,6.50
2017,12,15,16,34,6.40
2017,12,15,16,35,6.40
2017,12,15,16,36,6.40
2017,12,15,16,37,6.40
2017,12,15,16,38,6.40
2017,12,15,16,39,6.30
2017,12,15,16,40,6.30
2017,12,15,16,41,6.30
2017,12,15,16,42,6.20
2017,12,15,16,43,6.20
2017,12,15,16,44,6.20
2017,12,15,16,45,6.20
2017,12,15,16,46,6.30
2017,12,15,16,47,6.30
2017,12,15,16,48,6.30
2017,12,15,16,49,6.40
2017,12,15,16,50,6.40
2017,12,15,16,51,6.40
2017,12,15,16,52,6.40
2017,12,15,16,53,6.40
2017,12,15,16,54,6.40
2017,12,15,16,55,6.40
2017,12,15,16,56,6.40
2017,12,15,16,57,6.40
2017,12,15,16,58,6.40
2017,12,15,16,59,6.40
2017,12,15,17,00,6.40
2017,12,15,17,01,6.40
2017,12,15,17,02,6.40
2017,12,15,17,03,6.40
2017,12,15,17,04,6.30
2017,12,15,17,05,6.30
2017,12,15,17,06,6.30
2017,12,15,17,07,6.20
2017,12,15,17,08,6.20
2017,12,15,17,09,6.20
2017,12,15,17,10,6.20
2017,12,15,17,11,6.20
2017,12,15,17,12,6.20
2017,12,15,17,13,6.20
2017,12,15,17,14,6.20
2017,12,15,17,15,6.20
2017,12,15,17,16,6.20
2017,12,15,17,17,6.20
2017,12,15,17,18,6.30
2017,12,15,17,19,6.30
2017,12,15,17,20,6.30
2017,12,15,17,21,6.30
2017,12,15,17,22,6.30
2017,12,15,17,23,6.30
2017,12,15,17,24,6.30
2017,12,15,17,25,6.30
2017,12,15,17,26,6.20
2017,12,15,17,27,6.20
2017,12,15,17,28,6.20
2017,12,15,17,29,6.20
2017,12,15,17,30,6.20
2017,12,15,17,31,6.20
2017,12,15,17,32,6.20
2017,12,15,17,33,6.20
2017,12,15,17,34,6.10
2017,12,15,17,35,6.10
2017,12,15,17,36,6.10
2017,12,15,17,37,6.10
2017,12,15,17,38,6.00
2017,12,15,17,39,6.00
2017,12,15,17,40,6.00
2017,12,15,17,41,6.00
2017,12,15,17,42,5.90
2017,12,15,17,43,5.90
2017,12,15,17,44,5.90
2017,12,15,17,45,5.90
2017,12,15,17,46,5.90
2017,12,15,17,47,5.80
2017,12,15,17,48,5.90
2017,12,15,17,49,5.90
2017,12,15,17,50,6.00
2017,12,15,17,51,6.10
2017,12,15,17,52,6.20
2017,12,15,17,53,6.20
2017,12,15,17,54,6.20
2017,12,15,17,55,6.20
2017,12,15,17,56,6.20
2017,12,15,17,57,6.20
2017,12,15,17,58,6.20
2017,12,15,17,59,6.20
2017,12,15,18,00,6.20
2017,12,15,18,01,6.10
2017,12,15,18,02,6.10
2017,12,15,18,03,6.20
2017,12,15,18,04,6.20
2017,12,15,18,05,6.20
2017,12,15,18,06,6.20
2017,12,15,18,07,6.10
2017,12,15,18,08,6.10
2017,12,15,18,09,6.10
2017,12,15,18,10,6.00
2017,12,15,18,11,6.00
2017,12,15,18,12,6.00
2017,12,15,18,13,6.00
2017,12,15,18,14,6.00
2017,12,15,18,15,6.00
2017,12,15,18,16,6.00
2017,12,15,18,17,6.00
2017,12,15,18,18,6.00
2017,12,15,18,19,6.10
2017,12,15,18,20,6.10
2017,12,15,18,21,6.10
2017,12,15,18,22,6.10
2017,12,15,18,23,6.20
2017,12,15,18,24,6.20
2017,12,15,18,25,6.20
2017,12,15,18,26,6.20
2017,12,15,18,27,6.20
2017,12,15,18,28,6.20
2017,12,15,18,29,6.20
2017,12,15,18,30,6.20
2017,12,15,18,31,6.20
2017,12,15,18,32,6.20
2017,12,15,18,33,6.20
2017,12,15,18,34,6.20
2017,12,15,18,35,6.30
2017,12,15,18,36,6.30
2017,12,15,18,37,6.30
2017,12,15,18,38,6.30
2017,12,15,18,39,6.30
2017,12,15,18,40,6.30
2017,12,15,18,41,6.30
2017,12,15,18,42,6.30
2017,12,15,18,43,6.30
2017,12,15,18,44,6.30
2017,12,15,18,45,6.30
2017,12,15,18,46,6.30
2017,12,15,18,47,6.30
2017,12,15,18,48,6.30
2017,12,15,18,49,6.30
2017,12,15,18,50,6.30
2017,12,15,18,51,6.30
2017,12,15,18,52,6.30
2017,12,15,18,53,6.30
2017,12,15,18,54,6.20
2017,12,15,18,55,6.20
2017,12,15,18,56,6.20
2017,12,15,18,57,6.20
2017,12,15,18,58,6.10
2017,12,15,18,59,6.10
2017,12,15,19,00,6.10
2017,12,15,19,01,6.00
2017,12,15,19,02,6.00
2017,12,15,19,03,6.00
2017,12,15,19,04,5.90
2017,12,15,19,05,5.90
2017,12,15,19,06,5.80
2017,12,15,19,07,5.70
2017,12,15,19,08,5.70
2017,12,15,19,09,5.60
2017,12,15,19,10,5.60
2017,12,15,19,11,5.50
2017,12,15,19,12,5.50
2017,12,15,19,13,5.40
2017,12,15,19,14,5.30
2017,12,15,19,15,5.30
2017,12,15,19,16,5.20
2017,12,15,19,17,5.10
2017,12,15,19,18,5.00
2017,12,15,19,19,4.90
2017,12,15,19,20,4.90
2017,12,15,19,21,4.80
2017,12,15,19,22,4.80
2017,12,15,19,23,4.70
2017,12,15,19,24,4.70
2017,12,15,19,25,4.70
2017,12,15,19,26,4.60
2017,12,15,19,27,4.60
2017,12,15,19,28,4.60
2017,12,15,19,29,4.60
2017,12,15,19,30,4.60
2017,12,15,19,31,4.60
2017,12,15,19,32,4.60
2017,12,15,19,33,4.70
2017,12,15,19,34,4.70
2017,12,15,19,35,4.60
2017,12,15,19,36,4.70
2017,12,15,19,37,4.70
2017,12,15,19,38,4.70
2017,12,15,19,39,4.70
2017,12,15,19,40,4.80
2017,12,15,19,41,4.80
2017,12,15,19,42,4.90
2017,12,15,19,43,4.90
2017,12,15,19,44,5.00
2017,12,15,19,45,5.10
2017,12,15,19,46,5.10
2017,12,15,19,47,5.10
2017,12,15,19,48,5.00
2017,12,15,19,49,4.90
2017,12,15,19,50,4.90
2017,12,15,19,51,4.90
2017,12,15,19,52,4.90
2017,12,15,19,53,4.80
2017,12,15,19,54,4.80
2017,12,15,19,55,4.80
2017,12,15,19,56,4.70
2017,12,15,19,57,4.70
2017,12,15,19,58,4.70
2017,12,15,19,59,4.60
2017,12,15,20,00,4.60
2017,12,15,20,01,4.60
2017,12,15,20,02,4.60
2017,12,15,20,03,4.60
2017,12,15,20,04,4.60
2017,12,15,20,05,4.60
2017,12,15,20,06,4.50
2017,12,15,20,07,4.50
2017,12,15,20,08,4.50
2017,12,15,20,09,4.50
2017,12,15,20,10,4.60
2017,12,15,20,11,4.50
2017,12,15,20,12,4.50
2017,12,15,20,13,4.50
2017,12,15,20,14,4.50
2017,12,15,20,15,4.50
2017,12,15,20,16,4.50
2017,12,15,20,17,4.50
2017,12,15,20,18,4.50
2017,12,15,20,19,4.50
2017,12,15,20,20,4.60
2017,12,15,20,21,4.70
2017,12,15,20,22,4.90
2017,12,15,20,23,4.90
2017,12,15,20,24,5.10
2017,12,15,20,25,5.20
2017,12,15,20,26,5.30
2017,12,15,20,27,5.50
2017,12,15,20,28,5.60
2017,12,15,20,29,5.70
2017,12,15,20,30,5.80
2017,12,15,20,31,5.70
2017,12,15,20,32,5.70
2017,12,15,20,33,5.50
2017,12,15,20,34,5.40
2017,12,15,20,35,5.30
2017,12,15,20,36,5.10
2017,12,15,20,37,5.00